Starlink 3896

operational
NORAD ID: 52456 Int'l Des: 2022-049 Owner: SPXS Country: US Constellation: starlink
LEOCIRCULAR

关于 Starlink 3896

正在加载描述...

实时位置

正在加载3D地球...

即将过境

高度历史

Altitude vs Time

uPlot chart will show altitude changes over time

两行轨道根数

1 52456U 22049F 26037.76406837 .00000324 00000-0 38463-4 0 9995
2 52456 53.2176 207.9550 0001355 97.0043 263.1104 15.08831114207449
Epoch: Feb 6, 2026 • Age: 8 hours

当前状态

高度 559.3 km
速度 7.58 km/s
星下点 -53.35°S, 47°W
发射日期 May 6, 2022
运行时间 3.7 years
类型 internet

技术详情

分类 Payload
质量 297.00 kg
干质量 220.00 kg
总质量 297.00 kg
长度 0.20 m
直径 2.80 m
跨度 9.00 m
形状 Box + pan
制造商 SPXS
平台类型 Starlink
阶段状态 In Orbit
所有者/国家 SPXS/US

大型星座

Loading constellations...